FENGYUN 1C DEB, 30310

Orbit data source: Space-Track

FENGYUN 1C DEB, 30310 is space debris in SSO originally from a launch on Mon, 10 May 1999 UTC launched from the Taiyaun Space Center, China (TSC). Fengyun 1C debris stems from the Chinese weather satellite Fengyun-1C, which was intentionally destroyed by a Chinese anti-satellite missile in 2007. This event dramatically increased the amount of space debris, with thousands of trackable fragments posing hazards to satellites and human spaceflight. The Fengyun 1C debris cloud has become a focal point in discussions about space sustainability and the need for international regulations to prevent the creation of new debris.

Loading next visibility...
Identifier
30310, 1999-025ZX
Orbit
SSO
Country
Flag of CNCN / PRC
Related business
Manufacturer
Unknown
Mission
Spacecraft
Bus & Motor
Unknown
Mass
Unknown
Launch date (UTC)
1999-05-10 (27 years ago)
Launch vehicle
Unknown
Launch site
Taiyaun Space Center, China (TSC)
Object type
Payload
Rocket body
Debris
Shape & HBR
Unknown shape, 0.1 m
Radar Cross Section
Medium (>0.1 m² and <1 m²)

Expand to show TLE details & history
Last TLE update: 15 hours ago

TLE from 15 hours ago
0 FENGYUN 1C DEB
1 30310U 99025ZX  26207.98769435  .00001418  00000-0  64481-3 0  9990
2 30310  98.6516 223.9167 0241109  75.8979 286.8858 14.08962939999177
Epoch: 2026-07-26T23:42Z
TLE epoch observation values (Epoch: 2026-07-26T23:42:16.791Z)
Latitude
-0.0001°
Longitude
-76.33098°
Altitude
818.998 km
Speed
7.468 km/s
True Right ascension
14h 55m 40s
True Declination
0° 00' 00"
Sunlit
Object was in daylight at epoch
Visualization orbit readout
Latitude
Unknown
Longitude
Unknown
Altitude
Unknown
Speed
Unknown
Apparent Right ascension
Unknown
Apparent Declination
Unknown
Sunlit
N/A
Visualization observer readout
Local Sidereal Time
03:39:05
Azimuth
Unknown
Elevation
Unknown
Doppler factor
Unknown
Orbital elements
Apogee altitude
1,034.611 km
Perigee altitude
685.571 km
Semi-major axis
7,238.228 km
Eccentricity
0.02411
Inclination
98.6516°
RAAN
223.9167°
Arg. of periapsis
75.8979°
True anomaly
284.21964°
Mean anomaly
286.8858°
Eccentric anomaly
285.55494°
Mean motion
3.52448 °/min
Orbital period
102.14 mins
BSTAR
0.00064481
Loading maneuver chart data...
Computing Atmospheric mass density...
Loading historical data...
Loading historical data...
Loading historical data...
Loading historical data...
Loading historical data...
Loading historical data...
Loading historical data...

Documentation

Showing up to 5 results
|